Regional Weather Roundup
Issued by NWS Charleston, SC

Current Version | Previous Version | Text Only | Print | Product List | Glossary Off
Versions: 1 2 3 4 5 6 7 8 9 10 11 12 13 14 15 16 17 18 19 20 21 22 23 24 25 26 27 28 29 30 31 32 33 34 35 36 37 38 39 40 41 42 43 44 45 46 47 48 49 50
000 ASUS42 KCHS 191912 RWRCHS REGIONAL WEATHER ROUNDUP NATIONAL WEATHER SERVICE CHARLESTON SC 200 PM EST THU JAN 19 2017 NOTE: "FAIR" INDICATES FEW OR NO CLOUDS BELOW 12,000 FEET WITH NO SIGNIFICANT WEATHER AND/OR OBSTRUCTIONS TO VISIBILITY. NOT ALL STATIONS ARE QUALITY CONTROLLED. USE DATA WITH CAUTION... ESPECIALLY DEWPOINT OBSERVATIONS. SCZ027-030-031-034>040-042>050-192000- ...SOUTHEAST SOUTH CAROLINA... CITY SKY/WX TMP DP RH WIND PRES REMARKS N CHARLESTON PTSUNNY 72 54 53 E10 29.99F WATERFRONT PRK N/A 66 57 72 E6 30.00F MOUNT PLEASANT FAIR 68 55 64 E6 30.01F JOHNS ISLAND FAIR 68 57 68 E10 30.00F PINOPOLIS N/A 59 55 88 NW7 29.92F MONCKS CORNER FAIR 70 52 52 NE5 30.00F SUMMERVILLE FAIR 72 55 56 E3 30.00F BEAUFORT MCAS PTSUNNY 69 51 52 E5 29.99F BEAUFORT ARPT FAIR 68 52 56 NE5 29.99F HILTON HEAD IS SUNNY 68 57 68 NE7 30.01F WALTERBORO CLEAR 70 52 52 CALM 30.01F ALLENDALE FAIR 72 48 43 CALM 29.98F ...SOUTHERN MIDLANDS AND PEE DEE... CITY SKY/WX TMP DP RH WIND PRES REMARKS GEORGETOWN FAIR 63 48 59 E6 30.03F KINGSTREE FAIR 66 41 39 N5 30.01F ORANGEBURG SUNNY 66 48 52 NE5 30.01F BARNWELL FAIR 72 52 49 VRB5 29.99F AIKEN FAIR 68 45 42 E6 30.03F MANNING FAIR N/A N/A N/A E3 30.01F COLUMBIA PTSUNNY 69 42 37 VRB6 30.01F SUMTER SUNNY 67 40 36 NE3 29.99F FLORENCE SUNNY 66 42 41 CALM 30.02F MYRTLE BEACH SUNNY 63 46 55 SE12 30.05 N MYRTLE BEACH SUNNY 59 48 67 SE9 30.03F $$ GAZ063-065-086>088-099>101-113>116-118-119-134>141-150-192000- ...SOUTHEAST GEORGIA... CITY SKY/WX TMP DP RH WIND PRES REMARKS SAVANNAH ARPT PTSUNNY 79 48 33 VRB3 29.98F HUNTER AAF MOSUNNY 78 54 43 VRB5 29.95F FORT STEWART MOSUNNY 76 56 50 CALM 29.96F STATESBORO SUNNY 76 56 48 N5 29.98F SYLVANIA CLEAR N/A N/A N/A NW6 29.99F CLAXTON FAIR 75 58 55 CALM 29.98F ...CSRA...CENTRAL AND FAR SOUTHEAST GEORGIA... CITY SKY/WX TMP DP RH WIND PRES REMARKS THOMSON PTSUNNY 71 49 44 CALM 30.04F AUGUSTA-BUSH MOSUNNY 71 41 33 VRB3 29.99F AUGUSTA-DANIEL SUNNY 69 39 33 S5 30.00F SWAINSBORO FAIR 73 55 53 MISG 30.00F VIDALIA MOSUNNY 77 63 61 W3 29.99F EASTMAN FAIR 77 49 36 S7 30.01F HAZLEHURST FAIR 75 62 65 S5 29.98F ALMA MOSUNNY 74 61 63 S3 29.99F WAYCROSS CLOUDY 78 65 65 CALM 30.00F JESUP FAIR 75 57 53 CALM 29.99F BAXLEY FAIR 73 63 68 W3 29.99F BRUNSWICK MOSUNNY 77 63 61 CALM 29.99F SAINT SIMONS PTSUNNY 70 52 52 SE9 29.99F $$ SCZ027-028-034-036>038-045-046-048>050-GAZ119-141-192000- ...LAKE AND SUPPLEMENTAL COASTAL OBSERVATIONS... STATION/POSITION TIME TEMP WIND PRES WAVE SWELL AIR SEA DIR/SP/G HT/PER HT/PER/DIR (UTC) (F) (DEG/KT/KT) (MB) (FT/S) (FT/S/D) WINYAH BAY 1745 56 60/ 9 1018.0 LAKE MURRAY 1820 63 90/ 3/ 7 1016.3 ACE BASIN NERRS 1745 69 CALM 1017.0 FORT PULASKI 1848 58 100/ 12/ 13 1015.9F SAPELO ISLAND 1800 74 CALM 1016.0 $$ ANZ835-935-AMZ111-154-330-350-352-354-370-450-454-472-192000- ...C-MAN AND BUOY OBSERVATIONS... STATION/POSITION TIME TEMP WIND PRES WAVE SWELL AIR SEA DIR/SP/G HT/PER HT/PER/DIR (UTC) (F) (DEG/KT/KT) (MB) (FT/S) (FT/S/D) BUOY 41004 1750 68 72 50/ 14/ 16 1015.7 4/10 2/ 60/10 BUOY 41008 1750 61 60 250/ 4/ 4 1016.1 1 FOLLY BEACH CMAN 1800 58 50/ 14/ 17 1017.1F CAPERS NEARSHORE 1808 55 55 60/ 16/ 21 1016.3F FRIPP NEARSHORE 1808 59 58 50/ 8/ 14 1016.2F STATION/POSITION TIME TEMP WIND PRES WAVE SWELL AIR SEA DIR/SP/G HT/PER HT/PER/DIR (UTC) (F) (DEG/KT/KT) (MB) (FT/S) (FT/S/D) 5E ST. MARYS GA 1830 65 N/A 1 FRYING PAN BUOY 1850 61 71 30/ 10/ 14 1016.6F 4/10 3/ 90/10 BUOY 41025 1850 53 76 360/ 14/ 17 1017.1F 6/11 5/ 60/11 CAPE LOOKOUT NC 1800 53 40/ 9/ 11 1017.3F BUOY 41002 1850 67 72 360/ 8/ 10 1015.5F 7/ 8 7/ 10/ 8 BUOY 41010 NOT AVBL ST AUGUSTINE FL 1900 63 64 100/ 6/ 7 1016.5F $$

USA.gov is the U.S. government's official web portal to all federal, state and local government web resources and services.